Aurora, CO

2:16 AM MDT on August 28, 2016 (GMT -0600)
Denver International

Weather History for KDEN - January, 2013

Change the Weather History Date:

Saturday, January 5, 2013

  Actual Average Record
Temperature  
Mean Temperature 27 °F 30 °F  
Max Temperature 37 °F 43 °F 72 °F (1956)
Min Temperature 16 °F 18 °F -17 °F (1974)
Degree Days  
Heating Degree Days 38 35  
Month to date heating degree days 205 175  
Since 1 July heating degree days 2438 2643  
Cooling Degree Days 0 0  
Month to date cooling degree days 0 0  
Year to date cooling degree days 0 0  
Moisture  
Dew Point 10 °F    
Average Humidity 50    
Maximum Humidity 67    
Minimum Humidity 32    
Precipitation  
Precipitation 0.00 in 0.01 in 0.25 in (1989)
Month to date precipitation 0.00 0.07  
Year to date precipitation 0.00 0.07  
Snow  
Snow 0.00 in - - ()
Month to date snowfall 0  
Since 1 July snowfall 12.4  
Snow Depth T in    
Sea Level Pressure  
Sea Level Pressure 30.25 in    
Wind  
Wind Speed 8 mph (South)    
Max Wind Speed 15 mph    
Max Gust Speed 17 mph    
Visibility 10 miles    
Events      
T = Trace of Precipitation, MM = Missing Value Source: NWS Daily Summary

Daily Weather History Graph

Daily Weather History Graph

Search for Another Location

Airport or City:

Trip Planner

Search our weather history database for the weather conditions in past years. The results will help you decide how hot, cold, wet, or windy it might be!

Date:

Astronomy

Jan. 05, 2013 Rise Set
Actual Time 7:20 AM MST 4:48 PM MST
Civil Twilight 6:50 AM MST 5:18 PM MST
Nautical Twilight 6:16 AM MST 5:52 PM MST
Astronomical Twilight 5:43 AM MST 6:25 PM MST
Moon 12:29 AM MST (1/5) 11:39 AM MST (1/5)
Length of Visible Light 10h 28m
Length of Day
9h 28m
Last Quarter, 43% of the Moon is Illuminated
Jan 5
Last Quarter
Jan 11
New
Jan 18
First Quarter
Jan 26
Full
Feb 3
Last Quarter

Hourly Weather History & Observations

Time (MST) Temp. Windchill Dew Point Humidity Pressure Visibility Wind Dir Wind Speed Gust Speed Precip Events Conditions
12:53 AM 19.9 °F 11.1 °F 9.0 °F 62% 30.06 in 10.0 mi SW 6.9 mph - N/A   Clear
1:53 AM 18.0 °F 7.7 °F 8.1 °F 65% 30.08 in 10.0 mi WSW 8.1 mph - N/A   Clear
2:53 AM 21.9 °F 9.8 °F 9.0 °F 58% 30.07 in 10.0 mi SW 12.7 mph - N/A   Clear
3:53 AM 21.0 °F 10.6 °F 8.1 °F 57% 30.10 in 10.0 mi SW 9.2 mph - N/A   Clear
4:53 AM 19.0 °F 8.2 °F 7.0 °F 59% 30.13 in 10.0 mi WSW 9.2 mph - N/A   Clear
5:53 AM 21.9 °F 11.7 °F 7.0 °F 53% 30.19 in 10.0 mi SW 9.2 mph - N/A   Clear
6:53 AM 19.9 °F 11.1 °F 6.1 °F 55% 30.23 in 10.0 mi WSW 6.9 mph - N/A   Clear
7:53 AM 27.0 °F - 3.9 °F 37% 30.22 in 10.0 mi Calm Calm - N/A   Clear
8:53 AM 34.0 °F - 7.0 °F 32% 30.25 in 10.0 mi Calm Calm - N/A   Clear
9:53 AM 35.1 °F 30.1 °F 10.0 °F 35% 30.26 in 10.0 mi North 5.8 mph - N/A   Clear
10:53 AM 36.0 °F - 9.0 °F 33% 30.28 in 10.0 mi Calm Calm - N/A   Clear
11:53 AM 35.1 °F 27.9 °F 9.0 °F 34% 30.27 in 10.0 mi NE 9.2 mph - N/A   Clear
12:53 PM 35.1 °F 27.4 °F 12.0 °F 39% 30.26 in 10.0 mi ENE 10.4 mph - N/A   Clear
1:53 PM 36.0 °F 29.0 °F 14.0 °F 41% 30.28 in 10.0 mi East 9.2 mph - N/A   Partly Cloudy
2:53 PM 37.0 °F 31.6 °F 15.1 °F 41% 30.28 in 10.0 mi ENE 6.9 mph - N/A   Partly Cloudy
3:53 PM 35.1 °F 31.0 °F 16.0 °F 46% 30.30 in 10.0 mi SE 4.6 mph - N/A   Partly Cloudy
4:53 PM 30.9 °F 26.2 °F 12.0 °F 46% 30.34 in 10.0 mi South 4.6 mph - N/A   Partly Cloudy
5:53 PM 28.0 °F 20.0 °F 12.0 °F 51% 30.35 in 10.0 mi South 8.1 mph - N/A   Partly Cloudy
6:53 PM 23.0 °F 12.4 °F 12.9 °F 65% 30.37 in 10.0 mi South 10.4 mph - N/A   Clear
7:53 PM 24.1 °F 13.1 °F 12.9 °F 62% 30.34 in 10.0 mi South 11.5 mph - N/A   Clear
8:53 PM 19.0 °F 6.8 °F 10.9 °F 71% 30.32 in 10.0 mi South 11.5 mph - N/A   Clear
9:53 PM 19.0 °F 6.1 °F 10.0 °F 68% 30.32 in 10.0 mi South 12.7 mph - N/A   Clear
10:53 PM 18.0 °F 6.9 °F 8.1 °F 65% 30.32 in 10.0 mi South 9.2 mph - N/A   Clear
11:53 PM 17.1 °F 5.0 °F 7.0 °F 65% 30.33 in 10.0 mi South 10.4 mph - N/A   Clear